User: anonymous   Login
Location: Newark
(48.8519°N, 2.3472°E)
Time: 00:47:08
(UTC+00:00)
Language:

AAUSAT CUBESAT 2 - Orbit

View from above orbital plane
View from above orbital plane
View from above satellite
View from above satellite

Ground track
Ground track

The orbit data is extracted from the following two-line orbital elements,

1 32788U 08021F   19293.49146265 +.00000229 +00000-0 +25948-4 0  9995
2 32788 097.4951 303.7391 0012723 139.3198 220.8976 14.94824484623317
Epoch (UTC): 20 October 2019 11:47:42
Eccentricity: 0.0012723
inclination: 97.4951°
perigee height: 574 km
apogee height: 592 km
right ascension of ascending node: 303.7391°
argument of perigee: 139.3198°
revolutions per day: 14.94824484
mean anomaly at epoch: 220.8976°
orbit number at epoch: 62331

The dashed part of the orbit path shows where the satellite is in the earth's shadow,  

DLR